Погода в Новой Каховке

Украина / Херсонская область     46°45′00″N   33°21′32″E
темп.,
°C
ветер,
м/с
пор.,
м/с
влажн.,
%
обл.,
%
осадки,
мм/ч
давл.,
гПа
погр.,
м
27 октября, ср
ср2700:00+3вюв35750 0.0 103093
03:00+3в34800 0.0 102951
06:00+3в34800 0.0 102846
09:00+5в23660 0.0 1028136
12:00+10вюв22510 0.0 1027782
15:00+13ссв00411 0.0 10251097
18:00+9св11540 0.0 102510
21:00+7ссв11580 0.0 102610
28 октября, чт
чт2800:00+7сз115551 0.0 102610
03:00+5зсз22625 0.0 102611
06:00+4зсз22877 0.0 102610
09:00+7зсз227613 0.0 1027111
12:00+13сз23465 0.0 1026728
15:00+16сз34365 0.0 10241243
18:00+11сз225097 0.0 102411
21:00+10зсз336191 0.0 102537
29 октября, пт
пт2900:00+9зсз336821 0.0 102525
03:00+10зсз2366100 0.0 102565
06:00+11ссв2467100 0.0 102596
09:00+12ссв35745 0.0 1026236
12:00+15св556031 0.0 1026934
15:00+16св44523 0.0 10261100
18:00+11св36700 0.0 1027108
21:00+10всв36690 0.0 102891
30 октября, сб
сб3000:00+9в36780 0.0 102899
03:00+7в34780 0.0 102952
06:00+7всв35763 0.0 102973
09:00+10в510724 0.0 1030340
12:00+14в67520 0.0 10301063
15:00+16в67425 0.0 10281566
18:00+11вюв48590 0.0 1029167
21:00+8в39790 0.0 1029215
31 октября, вс
вс3100:00+8всв49800 0.0 1029183
03:00+7всв49730 0.0 1028165
05:00+7всв511780 0.0 1027235
08:00+9всв613690 0.0 1026477
11:00+14в79490 0.0 1025939
14:00+16в68400 0.0 10231223
17:00+12вюв510562 0.0 1023303
20:00+9всв387025 0.0 1023160